Flag for Netherlands Weather past 2 weeks in Enschede, Netherlands

Now
57 °F

Cool.


Feels Like: 56 °F
Forecast: 48 / 59 °F
Wind: 6 mph from West

Location: Deelen

Current Time: May 27, 2015 at 10:11:02 PM

Latest Report: May 27, 2015 at 9:25 PM


Visibility: N/A

Pressure: 30.07 "Hg

Humidity: 63%

Dew point: 45 °F

Location of EnschedeLocation

Historic Weather in Enschede — Graph

°F

Enschede temperature yesterday

Maximum temperature yesterday: 57 °F (at 2:25 PM)
Minimum temperature yesterday: 45 °F (at 4:25 AM)
Average temperature yesterday: 51 °F

Past Weeks' High & Low Weather Summary

 TemperatureHumidityPressure
High66 °F (May 22, 12:55 PM)100% (May 13, 4:55 AM)30.33 "Hg (May 13, 4:55 AM)
Low34 °F (May 21, 5:55 AM)32% (May 24, 6:55 PM)29.59 "Hg (May 19, 2:25 AM)
Average52 °F72%30.06 "Hg
* Reported May 12 8:25 PM — May 27 8:55 PM, Enschede, Weather by CustomWeather, © 2015

Note: Actual official high and low records may vary slightly from our data, if they occured in-between our weather recording intervals... More about our weather records

Advertising

Enschede weather history for previous 24 hours

 ConditionsComfort  
Time TempWeatherWind HumidityBarometerVisibility
8:55 PM
Wed, May 27
59 °FRefreshingly cool.6 mph59%30.07 "HgN/A
8:25 PM61 °FRefreshingly cool.6 mph59%30.07 "HgN/A
7:55 PM61 °FPassing clouds.12 mph63%30.07 "HgN/A
7:25 PM63 °FClear.12 mph59%30.09 "HgN/A
6:55 PM63 °FBroken clouds.10 mph59%30.09 "HgN/A
6:25 PM64 °FScattered clouds.12 mph46%30.09 "HgN/A
5:55 PM64 °FPartly sunny.9 mph46%30.12 "HgN/A
5:25 PM64 °FBroken clouds.12 mph43%30.12 "HgN/A
4:55 PM66 °FScattered clouds.10 mph43%30.12 "HgN/A
4:25 PM64 °FPartly sunny.12 mph46%30.15 "HgN/A
3:55 PM64 °FBroken clouds.9 mph43%30.15 "HgN/A
3:25 PM63 °FOvercast.10 mph49%30.15 "HgN/A
2:55 PM61 °FOvercast.12 mph52%30.18 "HgN/A
2:25 PM61 °FOvercast.12 mph52%30.18 "HgN/A
1:55 PM61 °FCloudy.10 mph52%30.18 "HgN/A
1:25 PM61 °FMostly cloudy.7 mph55%30.21 "HgN/A
12:55 PM59 °FMostly cloudy.6 mph51%30.21 "HgN/A
12:25 PM59 °FOvercast.7 mph51%30.21 "HgN/A
11:55 AM57 °FOvercast.5 mph55%30.21 "HgN/A
11:25 AM57 °FMostly cloudy.7 mph55%30.24 "HgN/A
10:55 AM57 °FOvercast.6 mph55%30.24 "HgN/A
10:25 AM55 °FOvercast.7 mph55%30.24 "HgN/A
9:55 AM57 °FOvercast.7 mph51%30.24 "HgN/A
9:25 AM55 °FPartly sunny.7 mph59%30.24 "HgN/A
8:55 AM54 °FOvercast.6 mph63%30.24 "HgN/A
8:25 AM52 °FOvercast.3 mph77%30.24 "HgN/A
7:55 AM50 °FOvercast.3 mph88%30.24 "HgN/A
7:25 AM46 °FOvercast.1 mph93%30.24 "HgN/A
6:55 AM41 °FPassing clouds.No wind93%30.24 "HgN/A
6:25 AM39 °FClear.No wind93%30.24 "HgN/A
5:25 AM39 °FPassing clouds.2 mph93%30.24 "HgN/A
4:55 AM39 °FPassing clouds.2 mph93%30.24 "HgN/A
4:25 AM41 °FPassing clouds.1 mph93%30.24 "HgN/A
3:55 AM41 °FQuite cool.2 mph93%30.24 "HgN/A
3:25 AM45 °FPassing clouds.2 mph87%30.24 "HgN/A
2:55 AM48 °FPassing clouds.1 mph76%30.24 "HgN/A
2:25 AM48 °FOvercast.2 mph76%30.24 "HgN/A
1:55 AM48 °FOvercast.2 mph76%30.24 "HgN/A
1:25 AM48 °FOvercast.No wind82%30.24 "HgN/A
12:55 AM48 °FOvercast.1 mph82%30.24 "HgN/A
12:25 AM50 °FOvercast.3 mph71%30.24 "HgN/A
11:55 PM
Tue, May 26
50 °FOvercast.5 mph71%30.24 "HgN/A
11:25 PM50 °FOvercast.3 mph71%30.24 "HgN/A
10:55 PM50 °FOvercast.5 mph71%30.24 "HgN/A
10:25 PM52 °FOvercast.5 mph67%30.24 "HgN/A
Weather by CustomWeather, © 2015

See weather overviewHow to use our weather pages